Weather History for Ovda Intl Airport, Israel

Change the Weather History Date:

Sunday, May 6, 2012

  Actual Average Record
Temperature  
Mean Temperature 78 °F -  
Max Temperature 89 °F 85 °F 102 °F (1998)
Min Temperature 68 °F 62 °F 57 °F (1997)
Cooling Degree Days 14    
Growing Degree Days 28 (Base 50)    
Moisture  
Dew Point 38 °F    
Average Humidity 23    
Maximum Humidity 41    
Minimum Humidity 14    
Precipitation  
Precipitation 0.00 in - - ()
Sea Level Pressure  
Sea Level Pressure 29.90 in    
Wind  
Wind Speed 7 mph ()    
Max Wind Speed 17 mph    
Max Gust Speed 33 mph    
Averages and records for this station are not official NWS values.
T = Trace of Precipitation, MM = Missing Value Source: Averaged Metar Reports

Daily Weather History Graph

Daily Weather History Graph

Search for Another Location

Airport:

Trip Planner

Search our weather history database for the weather conditions in past years. The results will help you decide how hot, cold, wet, or windy it might be!

Date:

Astronomy

May. 06, 2012 Rise Set
Actual Time 5:53 AM IDT 7:20 PM IDT
Civil Twilight 5:27 AM IDT 7:46 PM IDT
Nautical Twilight 4:56 AM IDT 8:17 PM IDT
Astronomical Twilight 4:25 AM IDT 8:49 PM IDT
Moon 7:56 PM IDT (5/6) 5:48 AM IDT (5/6)
Length of Visible Light 14h 19m
Length of Day
13h 27m
Full, 100% of the Moon is Illuminated
May 6
Full
May 13
Last Quarter
May 21
New
May 28
First Quarter
Jun 4
Full

Hourly Weather History & Observations

Time (IDT) Temp. Dew Point Humidity Pressure Visibility Wind Dir Wind Speed Gust Speed Precip Events Conditions
12:50 AM 73.4 °F 35.6 °F 25% 29.92 in - North 9.2 mph - N/A   Clear
1:50 AM 73.4 °F 37.4 °F 27% 29.89 in - NNE 11.5 mph - N/A   Clear
2:50 AM 71.6 °F 37.4 °F 29% 29.89 in - NE 8.1 mph - N/A   Clear
3:50 AM 71.6 °F 39.2 °F 31% 29.89 in - NNE 11.5 mph - N/A   Clear
4:50 AM 69.8 °F 39.2 °F 33% 29.89 in - NNE 8.1 mph - N/A   Clear
5:50 AM 69.8 °F 39.2 °F 33% 29.89 in - Variable 2.3 mph - N/A   Clear
6:50 AM 68.0 °F 41.0 °F 37% 29.92 in - Variable 1.2 mph - N/A   Clear
7:50 AM 71.6 °F 46.4 °F 41% 29.92 in - Variable 2.3 mph - N/A   Clear
8:50 AM 75.2 °F 41.0 °F 29% 29.92 in - NE 6.9 mph - N/A   Clear
9:50 AM 75.2 °F 41.0 °F 29% 29.92 in - NNE 9.2 mph - N/A   Clear
10:50 AM 82.4 °F 39.2 °F 21% 29.92 in - ENE 4.6 mph - N/A   Clear
11:50 AM 87.8 °F 37.4 °F 17% 29.92 in - Variable 2.3 mph - N/A   Clear
12:50 PM 87.8 °F 33.8 °F 15% 29.92 in - East 5.8 mph - N/A   Clear
1:50 PM 89.6 °F 33.8 °F 14% 29.89 in - NE 5.8 mph - N/A   Clear
2:50 PM 87.8 °F 35.6 °F 16% 29.89 in - NNE 5.8 mph - N/A   Clear
3:03 PM 87.8 °F 35.6 °F 16% 29.89 in - North 17.3 mph 33.4 mph N/A   Clear
3:35 PM 87.8 °F 35.6 °F 16% 29.89 in - NNW 8.1 mph - N/A   Clear
3:50 PM 87.8 °F 35.6 °F 16% 29.89 in - North 8.1 mph - N/A   Clear
4:50 PM 87.8 °F 35.6 °F 16% 29.86 in - NNE 6.9 mph - N/A   Clear
5:50 PM 89.6 °F 33.8 °F 14% 29.86 in - NW 6.9 mph - N/A   Clear
6:50 PM 87.8 °F 33.8 °F 15% 29.86 in - NNW 6.9 mph - N/A   Clear
7:50 PM 86.0 °F 33.8 °F 15% 29.86 in - WNW 3.5 mph - N/A   Clear
8:16 PM 82.4 °F 39.2 °F 21% 29.89 in - North 15.0 mph - N/A   Clear
8:50 PM 82.4 °F 37.4 °F 20% 29.89 in - North 11.5 mph - N/A   Clear
9:50 PM 78.8 °F 39.2 °F 24% 29.89 in - NNE 11.5 mph - N/A   Clear
10:50 PM 75.2 °F 39.2 °F 27% 29.92 in - NNE 6.9 mph - N/A   Clear
11:50 PM 73.4 °F 39.2 °F 29% 29.92 in - NNE 3.5 mph - N/A   Clear